• In Deutschland
  • Länderverzeichnis
  • Für 7 Tage
  • Wassertemperatur
  • Satellitenkarten
  • Wetterkarte
  • Widgets
  • user-avatar
    Anmelden

    Stündliche Wetter Biatris

    Heute, 14 November, Mittwoch

    Zeit Temperatur Niederschläge Wind Luftdruck Luftfeuchtigkeit
    00:00 +18°C° 0 mm 2 m/S 653 mmHg 37%
    01:00 +17°C° 0 mm 2 m/S 652 mmHg 40%
    02:00 +16°C° 0 mm 1 m/S 652 mmHg 41%
    03:00 +15°C° 0 mm 1 m/S 652 mmHg 43%
    04:00 +15°C° 0 mm 1 m/S 652 mmHg 46%
    05:00 +14°C° 0 mm 1 m/S 651 mmHg 49%
    06:00 +17°C° 0 mm 2 m/S 652 mmHg 42%
    07:00 +20°C° 0 mm 2 m/S 654 mmHg 35%
    08:00 +24°C° 0 mm 3 m/S 655 mmHg 27%
    09:00 +26°C° 0 mm 3 m/S 655 mmHg 21%
    10:00 +28°C° 0 mm 3 m/S 655 mmHg 16%
    11:00 +30°C° 0 mm 3 m/S 655 mmHg 10%
    12:00 +33°C° 0 mm 3 m/S 655 mmHg 10%
    13:00 +34°C° 0 mm 3 m/S 655 mmHg 9%
    14:00 +35°C° 0 mm 3 m/S 654 mmHg 8%
    15:00 +34°C° 0 mm 4 m/S 654 mmHg 9%
    16:00 +33°C° 0 mm 4 m/S 653 mmHg 11%
    17:00 +32°C° 0 mm 4 m/S 653 mmHg 12%
    18:00 +29°C° 0 mm 4 m/S 652 mmHg 15%
    19:00 +26°C° 0 mm 4 m/S 652 mmHg 19%
    20:00 +24°C° 0 mm 3 m/S 652 mmHg 23%
    21:00 +22°C° 0 mm 3 m/S 653 mmHg 26%
    22:00 +20°C° 0 mm 2 m/S 653 mmHg 30%
    23:00 +19°C° 0 mm 2 m/S 653 mmHg 34%

    Morgen, 15 November, Donnerstag

    Zeit Temperatur Niederschläge Wind Luftdruck Luftfeuchtigkeit
    00:00 +18°C° 0 mm 2 m/S 653 mmHg 39%
    01:00 +18°C° 0 mm 2 m/S 653 mmHg 44%
    02:00 +17°C° 0 mm 2 m/S 652 mmHg 50%
    03:00 +16°C° 0 mm 2 m/S 652 mmHg 54%
    04:00 +16°C° 0 mm 1 m/S 652 mmHg 59%
    05:00 +15°C° 0 mm 1 m/S 652 mmHg 64%
    06:00 +18°C° 0 mm 2 m/S 653 mmHg 54%
    07:00 +21°C° 0 mm 2 m/S 654 mmHg 45%
    08:00 +25°C° 0 mm 2 m/S 655 mmHg 36%
    09:00 +28°C° 0 mm 2 m/S 656 mmHg 29%
    10:00 +30°C° 0 mm 2 m/S 656 mmHg 22%
    11:00 +34°C° 0 mm 2 m/S 656 mmHg 15%
    12:00 +35°C° 0 mm 2 m/S 656 mmHg 14%
    13:00 +35°C° 0 mm 3 m/S 655 mmHg 12%
    14:00 +36°C° 0 mm 3 m/S 654 mmHg 10%
    15:00 +35°C° 0 mm 3 m/S 654 mmHg 10%
    16:00 +35°C° 0 mm 4 m/S 654 mmHg 11%
    17:00 +34°C° 0 mm 4 m/S 653 mmHg 11%
    18:00 +30°C° 0 mm 4 m/S 653 mmHg 15%
    19:00 +28°C° 0 mm 4 m/S 653 mmHg 18%
    20:00 +25°C° 0 mm 3 m/S 653 mmHg 22%
    21:00 +24°C° 0 mm 3 m/S 654 mmHg 27%
    22:00 +22°C° 0 mm 3 m/S 654 mmHg 33%
    23:00 +21°C° 0 mm 3 m/S 654 mmHg 38%

    übermorgen, 16 November, Freitag

    Zeit Temperatur Niederschläge Wind Luftdruck Luftfeuchtigkeit
    00:00 +20°C° 0 mm 3 m/S 654 mmHg 42%
    01:00 +20°C° 0 mm 2 m/S 653 mmHg 47%
    02:00 +19°C° 0 mm 2 m/S 653 mmHg 51%
    03:00 +18°C° 0 mm 2 m/S 653 mmHg 54%
    04:00 +18°C° 0 mm 2 m/S 653 mmHg 58%
    05:00 +17°C° 0 mm 2 m/S 653 mmHg 61%
    06:00 +20°C° 0 mm 2 m/S 654 mmHg 54%
    07:00 +24°C° 0 mm 3 m/S 655 mmHg 47%
    08:00 +27°C° 0 mm 3 m/S 656 mmHg 40%
    09:00 +29°C° 0 mm 2 m/S 657 mmHg 33%
    10:00 +32°C° 0 mm 2 m/S 657 mmHg 25%
    11:00 +35°C° 0 mm 1 m/S 658 mmHg 18%
    12:00 +37°C° 0 mm 2 m/S 657 mmHg 17%
    13:00 +37°C° 0 mm 2 m/S 656 mmHg 15%
    14:00 +37°C° 0 mm 2 m/S 655 mmHg 14%
    15:00 +36°C° 0 mm 2 m/S 655 mmHg 15%
    16:00 +35°C° 0 mm 3 m/S 654 mmHg 16%
    17:00 +35°C° 0 mm 3 m/S 654 mmHg 17%
    18:00 +33°C° 0 mm 3 m/S 654 mmHg 21%
    19:00 +30°C° 0 mm 3 m/S 654 mmHg 26%
    20:00 +28°C° 0 mm 3 m/S 654 mmHg 30%
    21:00 +27°C° 0 mm 3 m/S 655 mmHg 33%
    22:00 +26°C° 0 mm 3 m/S 655 mmHg 36%
    23:00 +25°C° 0 mm 3 m/S 655 mmHg 38%

    17 November, Samstag

    Zeit Temperatur Niederschläge Wind Luftdruck Luftfeuchtigkeit
    00:00 +24°C° 0 mm 3 m/S 654 mmHg 45%
    01:00 +22°C° 0 mm 3 m/S 654 mmHg 51%
    02:00 +21°C° 0 mm 3 m/S 653 mmHg 57%
    03:00 +21°C° 0 mm 3 m/S 653 mmHg 61%
    04:00 +20°C° 0 mm 3 m/S 654 mmHg 65%
    05:00 +20°C° 0 mm 3 m/S 654 mmHg 69%
    06:00 +22°C° 0 mm 4 m/S 654 mmHg 61%
    07:00 +25°C° 0 mm 4 m/S 655 mmHg 53%
    08:00 +27°C° 0 mm 4 m/S 656 mmHg 45%
    09:00 +30°C° 0 mm 3 m/S 656 mmHg 37%
    10:00 +34°C° 0 mm 2 m/S 657 mmHg 29%
    11:00 +37°C° 0 mm 2 m/S 657 mmHg 21%
    12:00 +35°C° 0 mm 1 m/S 656 mmHg 22%
    13:00 +34°C° 0 mm 1 m/S 655 mmHg 23%
    14:00 +33°C° 0 mm 1 m/S 654 mmHg 23%
    15:00 +33°C° 0 mm 1 m/S 654 mmHg 24%
    16:00 +32°C° 0 mm 1 m/S 654 mmHg 25%
    17:00 +31°C° 0 mm 1 m/S 653 mmHg 26%
    18:00 +30°C° 0 mm 2 m/S 653 mmHg 30%
    19:00 +29°C° 0 mm 2 m/S 654 mmHg 34%
    20:00 +27°C° 0 mm 2 m/S 654 mmHg 38%
    21:00 +26°C° 0 mm 2 m/S 654 mmHg 41%
    22:00 +26°C° 0 mm 2 m/S 654 mmHg 44%
    23:00 +25°C° 0 mm 2 m/S 654 mmHg 46%

    18 November, Sonntag

    Zeit Temperatur Niederschläge Wind Luftdruck Luftfeuchtigkeit
    00:00 +24°C° 0 mm 3 m/S 653 mmHg 48%
    01:00 +24°C° 0 mm 3 m/S 653 mmHg 50%
    02:00 +22°C° 0 mm 4 m/S 653 mmHg 52%
    03:00 +22°C° 0 mm 4 m/S 653 mmHg 57%
    04:00 +21°C° 0 mm 4 m/S 653 mmHg 62%
    05:00 +20°C° 0 mm 3 m/S 653 mmHg 67%
    06:00 +24°C° 0 mm 3 m/S 654 mmHg 60%
    07:00 +26°C° 0 mm 4 m/S 655 mmHg 52%
    08:00 +28°C° 0 mm 4 m/S 656 mmHg 44%
    09:00 +29°C° 0 mm 3 m/S 656 mmHg 40%
    10:00 +30°C° 0 mm 3 m/S 656 mmHg 36%
    11:00 +30°C° 0 mm 2 m/S 655 mmHg 32%
    12:00 +31°C° 0 mm 2 m/S 655 mmHg 31%
    13:00 +31°C° 0 mm 2 m/S 654 mmHg 30%
    14:00 +32°C° 0 mm 2 m/S 654 mmHg 28%
    15:00 +31°C° 0 mm 2 m/S 654 mmHg 29%
    16:00 +31°C° 0 mm 2 m/S 654 mmHg 29%
    17:00 +30°C° 0 mm 2 m/S 653 mmHg 30%
    18:00 +29°C° 0 mm 2 m/S 654 mmHg 34%
    19:00 +27°C° 0 mm 2 m/S 654 mmHg 39%
    20:00 +26°C° 0 mm 2 m/S 654 mmHg 43%
    21:00 +25°C° 0 mm 2 m/S 654 mmHg 48%
    22:00 +24°C° 0 mm 3 m/S 654 mmHg 53%
    23:00 +22°C° 0 mm 3 m/S 654 mmHg 58%

    19 November, Montag

    Zeit Temperatur Niederschläge Wind Luftdruck Luftfeuchtigkeit
    00:00 +21°C° 0 mm 3 m/S 654 mmHg 61%
    01:00 +21°C° 0 mm 3 m/S 653 mmHg 65%
    02:00 +20°C° 0 mm 2 m/S 653 mmHg 69%
    03:00 +19°C° 0 mm 2 m/S 653 mmHg 72%
    04:00 +19°C° 0 mm 2 m/S 653 mmHg 76%
    05:00 +18°C° 0 mm 2 m/S 653 mmHg 80%
    06:00 +21°C° 0 mm 2 m/S 654 mmHg 68%
    07:00 +24°C° 0 mm 3 m/S 655 mmHg 57%
    08:00 +27°C° 0 mm 4 m/S 657 mmHg 46%
    09:00 +28°C° 0 mm 4 m/S 657 mmHg 38%
    10:00 +30°C° 0 mm 4 m/S 657 mmHg 31%
    11:00 +33°C° 0 mm 3 m/S 656 mmHg 23%
    12:00 +34°C° 0 mm 4 m/S 656 mmHg 22%
    13:00 +34°C° 0 mm 4 m/S 655 mmHg 22%
    14:00 +35°C° 0 mm 4 m/S 654 mmHg 21%
    15:00 +34°C° 0 mm 4 m/S 654 mmHg 22%
    16:00 +33°C° 0 mm 4 m/S 653 mmHg 24%
    17:00 +32°C° 0 mm 4 m/S 653 mmHg 25%
    18:00 +30°C° 0 mm 4 m/S 653 mmHg 31%
    19:00 +28°C° 0 mm 4 m/S 654 mmHg 36%
    20:00 +27°C° 0 mm 4 m/S 654 mmHg 42%
    21:00 +26°C° 0 mm 4 m/S 654 mmHg 48%
    22:00 +23°C° 0 mm 4 m/S 654 mmHg 54%
    23:00 +22°C° 0 mm 4 m/S 654 mmHg 60%
    Mehr zeigen